Regional Weather Roundup
Issued by NWS

Home | Current Version | Previous Version | Graphics & Text | Print | Product List | Glossary On
Versions: 1 2 3 4 5 6 7 8 9 10 11 12 13 14 15 16 17 18 19 20 21 22 23 24 25 26 27
000
ASUS45 KCYS 202310
RWRWY

WYOMING REGIONAL WEATHER ROUNDUP
NATIONAL WEATHER SERVICE CHEYENNE WY
500 PM MDT SUN APR 20 2014

NOTE:  "FAIR" INDICATES FEW OR NO CLOUDS BELOW 12,000 FEET
WITH NO SIGNIFICANT WEATHER AND/OR OBSTRUCTIONS TO VISIBILITY.

WYZ001-210000-
YELLOWSTONE NATIONAL PARK

CITY           SKY/WX    TMP DP  RH WIND       PRES   REMARKS
LK YELLOWSTONE   N/A     47  14  26 VRB7G18   30.23F
W YELLOWSTONE  NOT AVBL

$$
WYZ002>013-054>058-071-098>099-210000-
NORTHERN WYOMING

CITY           SKY/WX    TMP DP  RH WIND       PRES   REMARKS
JACKSON        SUNNY     55  21  26 W10G17    30.18F
CODY           SUNNY     61  28  29 N12       30.08R
GREYBULL       SUNNY     69  22  16 NW17      30.02R
WORLAND        SUNNY     69  28  21 N15       30.01S
SHERIDAN         N/A     59  25  27 N16G22      N/A
BUFFALO        SUNNY     59  31  34 N20       30.10R
GILLETTE       SUNNY     63  30  28 N15G23    30.06S
HULETT         FAIR      63  28  27 N13       30.07
NEWCASTLE      FAIR      66  27  22 N15       30.01

$$
WYZ014>020-022>026-101>103-210000-
CENTRAL WYOMING

CITY           SKY/WX    TMP DP  RH WIND       PRES   REMARKS
BIG PINEY      MOSUNNY   60  15  17 MISG      30.18S
PINEDALE       PTCLDY    54  12  19 NW13G25   30.21R
DUBOIS         FAIR      55   7  14 N15G23    30.16S
LANDER         SUNNY     69  13  11 NW14      30.02S
RIVERTON       SUNNY     72  11   9 NW14      30.04R
CASPER         MOSUNNY   68  29  23 N12       30.04R
DOUGLAS        SUNNY     68  32  26 NE18      30.03R

$$
WYZ021-027>030-104>119-210000-
SOUTHERN WYOMING

CITY           SKY/WX    TMP DP  RH WIND       PRES   REMARKS
EVANSTON       MOSUNNY   60  18  19 W20G29    30.21R
KEMMERER       CLEAR     59  14  17 NW18G26   30.21R
FORT BRIDGER   FAIR      62  23  22 W21G31    30.21S
ROCK SPRINGS   MOSUNNY   64  19  17 NW14G29   30.14S
DIXON          FAIR      60  35  38 S15       30.18F
RAWLINS        MOSUNNY   64  18  17 W18G26    30.11R
SARATOGA       CLOUDY    59  30  33 W22G31    30.15R
LARAMIE        PTSUNNY   61  24  24 W15       30.12S
CHEYENNE       CLOUDY    66  26  22 NW14      30.06S
TORRINGTON     MOSUNNY   75  25  15 N10       29.94S
PINE BLUFFS    FAIR      70  30  23 NE13G18   30.01S

$$



USA.gov is the U.S. government's official web portal to all federal, state and local government web resources and services.